This demonstration page uses our WeatherBlox Daily Observations layout. Learn more.

Left ArrowRight Arrow

Hourly Observations for November 5, 2022

Temp ( °F °C ) Dew Point ( °F °C ) Humidity (%) Winds ( mph kmh ) Pressure ( in mb ) Visibility ( mi km ) Precip ( " mm )
12:55 am 00:55 Cloudy 40 4.4 30 -1 68 68 N 15 24 29.74 1007 10 16 0.00 0.00
1:55 am 01:55 Cloudy 39 4 30 -1 70 70 N 8 13 29.72 1007 10 16 0.00 0.00
2:55 am 02:55 Cloudy 39 4 29 -1.4 68 68 NNW 15 24 29.69 1006 10 16 0.00 0.00
3:55 am 03:55 Cloudy 39 3.8 28 -2 66 66 NNW 14 22 29.63 1003 10 16 0.00 0.00
4:55 am 04:55 Cloudy 38 3.4 28 -2.4 66 66 NNW 14 22 29.63 1003 10 16 0.00 0.00
5:55 am 05:55 Cloudy 38 3.2 27 -2.7 65 65 NW 16 26 29.62 1003 10 16 0.00 0.00
6:55 am 06:55 Cloudy 37 2.5 26 -3.2 66 66 NW 8 13 29.61 1003 10 16 0.00 0.00
7:55 am 07:55 Mostly Cloudy 34 0.9 26 -3.6 72 72 WNW 9 15 29.63 1004 10 16 0.00 0.00
8:55 am 08:55 Sunny 33 0.5 25 -3.8 73 73 W 9 15 29.65 1004 10 16 0.00 0.00
9:55 am 09:55 Sunny 36 2.1 26 -3.4 67 67 WNW 13 20 29.65 1004 10 16 0.00 0.00
10:55 am 10:55 Sunny 39 4 26 -3.1 60 60 WNW 8 13 29.62 1003 10 16 0.00 0.00
11:55 am 11:55 Sunny 43 6.3 27 -2.6 53 53 WSW 10 17 29.63 1003 10 16 0.00 0.00
12:55 pm 12:55 Sunny 47 8.5 25 -4 41 41 WSW 8 13 29.62 1003 10 16 0.00 0.00
1:55 pm 13:55 Sunny 50 10 27 -2.7 41 41 S 9 15 29.57 1001 10 16 0.00 0.00
2:55 pm 14:55 Sunny 54 12.1 29 -1.4 39 39 S 14 22 29.53 1000 10 16 0.00 0.00
3:55 pm 15:55 Sunny 55 12.8 30 -1.2 38 38 S 13 20 29.52 1000 10 16 0.00 0.00
4:55 pm 16:55 Sunny 57 14 30 -1.2 35 35 S 20 31 29.52 1000 10 16 0.00 0.00
5:55 pm 17:55 Sunny 56 13.2 31 -0.5 39 39 S 14 22 29.52 1000 10 16 0.00 0.00
6:55 pm 18:55 Clear 53 11.8 33 0.6 46 46 S 12 19 29.54 1001 10 16 0.00 0.00
7:55 pm 19:55 Clear 52 11.3 35 1.5 51 51 S 12 19 29.56 1001 10 16 0.00 0.00
8:55 pm 20:55 Clear 52 11 37 2.6 56 56 S 20 31 29.56 1001 10 16 0.00 0.00
9:55 pm 21:55 Clear 52 10.9 37 2.5 56 56 S 18 30 29.57 1001 10 16 0.00 0.00
10:55 pm 22:55 Partly Cloudy 53 11.7 36 2.4 53 53 S 17 28 29.56 1001 10 16 0.00 0.00
11:55 pm 23:55 Cloudy 54 12 37 3 54 54 SSW 17 28 29.58 1002 10 16 0.00 0.00

Powered by AerisWeather